FENGYUN 1C DEB, 30742

Orbit data source: Space-Track

FENGYUN 1C DEB, 30742 is space debris in SSO originally from a launch on Mon, 10 May 1999 UTC launched from the Taiyaun Space Center, China (TSC). Fengyun 1C debris stems from the Chinese weather satellite Fengyun-1C, which was intentionally destroyed by a Chinese anti-satellite missile in 2007. This event dramatically increased the amount of space debris, with thousands of trackable fragments posing hazards to satellites and human spaceflight. The Fengyun 1C debris cloud has become a focal point in discussions about space sustainability and the need for international regulations to prevent the creation of new debris.

Loading next visibility...
Identifier
30742, 1999-025ATC
Orbit
SSO
Country
Flag of CNCN / PRC
Related business
Manufacturer
Unknown
Mission
Spacecraft
Bus & Motor
Unknown
Mass
Unknown
Launch date (UTC)
1999-05-10 (26 years ago)
Launch vehicle
Unknown
Launch site
Taiyaun Space Center, China (TSC)
Object type
Payload
Rocket body
Debris
Shape & HBR
Unknown shape, 0.1 m
Radar Cross Section
Small (<0.1 m²)

Expand to show TLE details & history
Last TLE update: 1 day ago

TLE from 1 day ago
0 FENGYUN 1C DEB
1 30742U 99025ATC 25301.57033757  .00002938  00000-0  16518-2 0  9994
2 30742  98.8717 346.6283 0069325 355.9171 169.3569 14.10025981954059
Epoch: 2025-10-28T13:41Z
TLE epoch observation values (Epoch: 2025-10-28T13:41:17.166Z)
Latitude
14.37421°
Longitude
-73.56859°
Altitude
910.787 km
Speed
7.372 km/s
True Right ascension
11h 15m 38s
True Declination
14° 17' 36"
Sunlit
Object was in daylight at epoch
Visualization orbit readout
Latitude
Unknown
Longitude
Unknown
Altitude
Unknown
Speed
Unknown
Apparent Right ascension
Unknown
Apparent Declination
Unknown
Sunlit
N/A
Visualization observer readout
Local Sidereal Time
20:12:34
Azimuth
Unknown
Elevation
Unknown
Doppler factor
Unknown
Orbital elements
Apogee altitude
906.616 km
Perigee altitude
806.308 km
Semi-major axis
7,234.599 km
Eccentricity
0.00693
Inclination
98.8717°
RAAN
346.6283°
Arg. of periapsis
355.9171°
True anomaly
169.50238°
Mean anomaly
169.3569°
Eccentric anomaly
169.42976°
Mean motion
3.52713 °/min
Orbital period
102.07 mins
BSTAR
0.0016518
Loading maneuver chart data...
Computing Atmospheric mass density...

Documentation

Showing up to 5 results
|